Location: ??????
(55.7522°N, 37.6156°E)
Time: 17:48:10
(UTC+00:00)

Okean 1-7 - Pass Details

Date: 14 June 2025
Orbit: 570 x 592 km, 82.5° (Epoch: 13 July)

Event Time Altitude Azimuth Distance (km) Brightness Sun altitude
Exits shadow 20:43:22 14° 178° (S) 1,616 4.6 -10.3°
Maximum altitude 20:46:49 66° 98° (E) 627 3.0 -10.4°
Drops below altitude 10° 20:50:57 10° 16° (NNE) 1,887 6.7 -10.5°
Sets 20:53:09 0° 14° (NNE) 2,790 7.8 -10.6°
